Regional Weather Roundup
Issued by NWS

Home | Current Version | Previous Version | Text Only | Print | Product List | Glossary Off
Versions: 1 2 3 4 5 6 7 8 9 10 11 12 13 14 15 16 17 18 19 20 21 22 23 24 25 26 27 28 29 30 31 32 33 34 35 36 37 38 39 40 41 42 43 44 45 46 47 48 49 50

000
ASUS43 KOAX 181602
RWRNE

WEATHER ROUNDUP FOR NEBRASKA
NATIONAL WEATHER SERVICE OMAHA NE
1100 AM CDT FRI AUG 18 2017

NOTES: SATELLITE DATA IS BEING USED TO AUGMENT CLOUD COVER ABOVE
       12000 FEET.
       "FAIR" INDICATES FEW OR NO CLOUDS BELOW 12,000 FEET WITH NO
       SIGNIFICANT WEATHER AND/OR OBSTRUCTIONS TO VISIBILITY.


NEZ001>004-019>022-054>056-181700-
NEBRASKA PANHANDLE

CITY           SKY/WX    TMP DP  RH WIND       PRES   REMARKS
SCOTTSBLUFF    SUNNY     71  52  50 W8        30.14F
ALLIANCE       SUNNY     75  54  47 W10       30.12R
CHADRON        SUNNY     74  51  44 CALM      30.09R
GORDON         FAIR      77  51  40 W13       30.08S
KIMBALL        SUNNY     74  46  36 CALM      30.21S
SIDNEY         SUNNY     76  50  40 NW8       30.17R
$$

NEZ057>060-069>072-079>082-181700-
SOUTHWEST NEBRASKA

CITY           SKY/WX    TMP DP  RH WIND       PRES   REMARKS
NORTH PLATTE   SUNNY     73  61  65 W8        30.06R
IMPERIAL       SUNNY     73  58  59 NW9       30.09R
LEXINGTON      SUNNY     75  63  66 NW6       30.03S
MCCOOK         SUNNY     75  61  61 NW8       30.03S
OGALLALA       SUNNY     75  54  48 NW6       30.10S
$$

NEZ005>010-023>029-035>040-094-181700-
NORTH CENTRAL NEBRASKA

CITY           SKY/WX    TMP DP  RH WIND       PRES   REMARKS
VALENTINE      SUNNY     79  54  41 W14       30.00S
AINSWORTH      SUNNY     75  58  55 W9        30.01S
BROKEN BOW     MOSUNNY   77  60  55 W9        30.02S
O`NEILL        SUNNY     74  61  64 W8        29.98S
ORD            SUNNY     75  60  59 W8        29.98F
THEDFORD       MOSUNNY   75  58  54 W8        30.05S
$$

NEZ041-046>049-061>064-073>077-083>087-181700-
SOUTH CENTRAL NEBRASKA

CITY           SKY/WX    TMP DP  RH WIND       PRES   REMARKS
GRAND ISLAND   SUNNY     76  62  62 W3        29.99F
AURORA         SUNNY     72  64  75 CALM      29.99F
HASTINGS       SUNNY     78  62  57 W7        30.00F
HEBRON         SUNNY     79  65  61 SW7       29.99S
HOLDREGE       SUNNY     74  60  59 W9        30.01F
KEARNEY        SUNNY     77  61  57 W9        30.01S
YORK           SUNNY     72  64  78 CALM      29.99F
$$

NEZ011>018-030>034-042>045-181700-
NORTHEAST NEBRASKA

CITY           SKY/WX    TMP DP  RH WIND       PRES   REMARKS
NORFOLK        SUNNY     74  61  63 W8        29.96S
ALBION         SUNNY     74  62  67 W3        29.98S
BLAIR          SUNNY     76  64  67 W6        29.96S
COLUMBUS       SUNNY     74  62  66 VRB5      29.98S
FREMONT        SUNNY     74  65  72 W5        29.97S
TEKAMAH        SUNNY     76  64  66 NW5       29.94S
WAYNE          SUNNY     73  67  80 SW3       29.96S
$$

NEZ050>053-065>068-078-088>093-181700-
SOUTHEAST NEBRASKA

CITY           SKY/WX    TMP DP  RH WIND       PRES   REMARKS
LINCOLN        SUNNY     78  62  57 VRB3      29.97F
OMAHA EPPLEY   MOSUNNY   80  62  54 NW6       29.94S
BEATRICE       SUNNY     81  64  54 NW9       29.97S
FALLS CITY     SUNNY     82  64  54 SW8       29.92S
NEBRASKA CITY  CLOUDY    76  68  74 N9        29.96S
PLATTSMOUTH    MOSUNNY   76  63  62 W6        29.96S
$$

NEZ044-045-051>053-067-181700-
OMAHA AREA

CITY           SKY/WX    TMP DP  RH WIND       PRES   REMARKS
OMAHA EPPLEY   MOSUNNY   80  62  54 NW6       29.94S
BLAIR          SUNNY     76  64  67 W6        29.96S
FREMONT        SUNNY     74  65  72 W5        29.97S
MILLARD        SUNNY     79  63  57 NW7       29.95S
OFFUTT AFB     SUNNY     80  60  50 NW10      29.94S
PLATTSMOUTH    MOSUNNY   76  63  62 W6        29.96S
WAHOO          FAIR      76  65  68 NW6       29.96F
$$



USA.gov is the U.S. government's official web portal to all federal, state and local government web resources and services.